Location: Enborne
(51.3833°N, 1.3667°W)
Time: 02:17:49
(UTC+00:00)

Okean 1 Rocket - Pass Details

Date: 18 September 2020
Orbit: 605 x 635 km, 82.5° (Epoch: 30 October)

Event Time Altitude Azimuth Distance (km) Brightness Sun altitude
Exits shadow 19:51:20 28° 120° (ESE) 1,193 3.9 -15.9°
Maximum altitude 19:52:30 33° 90° (E) 1,085 3.8 -16.0°
Drops below altitude 10° 19:56:31 10° 27° (NNE) 2,035 5.7 -16.6°
Sets 19:58:56 0° 18° (NNE) 2,949 6.6 -16.9°
